Date,Month,Day of Year,"Mean(SGF(O) Tree 1, Lower Bole RWC)","Mean(SGF(O) Tree 2, Lower Bole RWC)","Mean(SGF(O) Tree 3, Lower Bole RWC)","Mean(SGF(Y) Tree 4, Lower Bole RWC)","Mean(SGF(Y) Tree 5, Lower Bole RWC)","Mean(SGF(Y) Tree 6, Lower Bole RWC)","Mean(SGF(O) Tree 1, Upper Canopy RWC)","Mean(SGF(O) Tree 2, Upper Canopy RWC)","Mean(SGF(O) Tree 3, Upper Canopy RWC)","Mean(SGF(O) Total Available Soil Water, 0-60 cm (l m-2))","Mean(SGF(Y) Total Available Soil Water, 0-60 cm (l m-2))",====================================,SGF(O) Tree 1 rBAI (%),SGF(O) Tree 2 rBAI (%),SGF(O) Tree 3 rBAI (%),SGF(Y) Tree 4 rBAI (%),SGF(Y) Tree 5 rBAI (%),SGF(Y) Tree 6 rBAI (%)
11/09/2004,11,314,72.27,58.19,53.21,52.85,53.19,51.79,,,,138.48,240,,,,,,,
11/10/2004,11,315,72.12,59.66,53.09,52.29,52.95,51.39,,,,137.23,240,,,,,,,
11/11/2004,11,316,70.54,58.89,52.52,51.61,53.27,51.05,,,,135.55,238,,,,,,,
11/12/2004,11,317,69.32,58.09,52.27,51.83,53.84,51.13,,,,134.02,237,,,,,,,
11/13/2004,11,318,68.59,57.90,52.59,52.75,54.50,51.47,,,,133.01,236,,,,,,,
11/14/2004,11,319,68.01,57.33,52.55,53.04,54.80,51.36,,,,131.92,235,,,,,,,
11/15/2004,11,320,67.46,56.72,52.49,53.09,55.07,51.43,,,,130.52,234,,,,,,,
11/16/2004,11,321,67.20,56.71,53.07,53.58,55.67,51.86,,,,129.88,234,,,,,,,
11/17/2004,11,322,66.86,56.33,52.94,53.64,55.81,51.87,,,,129.83,233,,,,,,,
11/18/2004,11,323,66.61,56.05,52.89,53.79,55.97,52.05,,,,129.56,235,,,,,,,
11/19/2004,11,324,66.82,56.23,53.32,54.19,56.40,52.42,,,,130.93,242,,,,,,,
11/20/2004,11,325,67.07,56.39,53.72,54.47,56.74,52.63,,,,132.48,244,,,,,,,
11/21/2004,11,326,66.61,56.02,53.09,54.16,56.49,52.34,,,,132.94,244,,,,,,,
11/22/2004,11,327,66.07,55.67,52.30,53.95,56.60,52.27,,,,132.65,243,,,,,,,
11/23/2004,11,328,66.02,55.71,52.27,54.09,56.83,52.47,,,,132.38,242,,,,,,,
11/24/2004,11,329,66.15,55.90,52.49,54.40,57.26,52.82,,,,151.05,270,,,,,,,
11/25/2004,11,330,66.22,56.03,52.69,54.77,57.56,53.85,,,,173.32,293,,,,,,,
11/26/2004,11,331,66.10,56.08,52.89,54.84,57.83,54.65,,,,168.51,283,,,,,,,
11/27/2004,11,332,66.19,56.22,53.16,54.93,58.05,54.44,,,,160.84,272,,,,,,,
11/28/2004,11,333,66.29,56.31,53.36,54.60,57.62,53.07,,,,156.23,266,,,,,,,
11/29/2004,11,334,66.30,56.38,53.37,53.11,56.17,51.17,,,,152.92,262,,,,,,,
11/30/2004,11,335,66.29,56.27,53.35,52.68,55.52,51.14,,,,150.43,259,,,,,,,
12/01/2004,12,336,66.38,56.28,53.36,52.74,55.66,51.72,,,,148.41,257,,,,,,,
12/02/2004,12,337,66.32,56.32,53.41,52.27,54.75,50.40,,,,146.75,258,,,,,,,
12/03/2004,12,338,65.99,56.00,52.81,51.79,54.06,50.19,,,,145.92,263,,,,,,,
12/04/2004,12,339,65.54,55.30,51.04,51.30,53.68,49.68,,,,154.70,264,,,,,,,
12/05/2004,12,340,65.44,55.11,50.28,51.07,53.59,48.68,,,,156.81,261,,,,,,,
12/06/2004,12,341,65.43,55.25,50.45,50.85,53.17,48.30,,,,155.02,259,,,,,,,
12/07/2004,12,342,65.64,55.36,50.55,50.96,53.26,48.70,,,,152.63,261,,,,,,,
12/08/2004,12,343,65.82,55.30,50.49,53.00,55.31,55.33,,,,188.13,331,,,,,,,
12/09/2004,12,344,65.96,55.38,50.50,54.69,57.32,59.04,,,,199.97,331,,,,,,,
12/10/2004,12,345,66.02,55.45,50.58,54.94,57.87,57.73,,,,195.39,348,,,,,,,
12/11/2004,12,346,66.01,55.49,50.62,54.99,57.95,56.82,,,,371.67,349,,,,,,,
12/12/2004,12,347,65.70,54.97,49.57,54.07,57.42,55.21,,,,258.71,330,,,,,,,
12/13/2004,12,348,65.29,54.37,48.35,53.04,56.90,53.73,,,,179.56,299,,,,,,,
12/14/2004,12,349,65.22,54.33,48.27,53.00,56.88,53.62,,,,181.50,303,,0.00164,0.00190,-0.00043,0.00037,-0.00044,0.00257
12/15/2004,12,350,65.12,54.26,48.20,52.91,56.81,53.55,,,,175.55,294,,,,,,,
12/16/2004,12,351,65.02,54.04,47.77,52.46,56.56,53.25,,,,165.99,282,,,,,,,
12/17/2004,12,352,64.86,53.88,47.54,52.13,56.39,53.14,,,,159.63,274,,,,,,,
12/18/2004,12,353,64.77,53.86,47.45,52.04,56.34,53.24,,,,154.97,267,,,,,,,
12/19/2004,12,354,64.71,53.89,47.45,52.06,56.40,53.31,,,,151.71,263,,,,,,,
12/20/2004,12,355,64.64,54.02,47.71,52.19,56.52,53.46,,,,149.95,260,,,,,,,
12/21/2004,12,356,64.79,54.17,47.92,52.23,56.58,53.57,,,,148.70,258,,,,,,,
12/22/2004,12,357,64.87,54.19,47.96,52.30,56.62,53.58,,,,147.49,257,,,,,,,
12/23/2004,12,358,64.76,54.06,47.86,52.15,56.52,53.45,,,,146.30,255,,,,,,,
12/24/2004,12,359,64.75,53.95,47.65,51.97,56.40,53.28,,,,144.72,254,,,,,,,
12/25/2004,12,360,64.70,53.83,47.53,51.86,56.38,53.22,,,,143.32,253,,,,,,,
12/26/2004,12,361,64.65,53.88,47.59,51.88,56.47,53.26,,,,142.70,252,,,,,,,
12/27/2004,12,362,64.61,53.90,47.63,51.87,56.45,53.23,,,,142.10,252,,,,,,,
12/28/2004,12,363,64.67,53.83,47.53,51.83,56.44,53.18,,,,142.77,252,,,,,,,
12/29/2004,12,364,64.60,53.83,47.59,51.84,56.49,53.19,,,,143.52,252,,,,,,,
12/30/2004,12,365,64.57,53.93,47.72,51.84,56.53,53.25,,,,143.91,253,,,,,,,
12/31/2004,12,366,64.56,54.05,47.85,51.91,56.60,53.35,,,,144.17,253,,,,,,,
01/01/2005,1,1,64.49,54.13,47.95,51.98,56.50,53.39,,,,143.96,253,,,,,,,
01/02/2005,1,2,63.48,54.14,48.10,50.68,54.98,50.75,,,,143.72,252,,,,,,,
01/03/2005,1,3,62.98,53.13,48.05,49.33,53.52,48.27,,,,143.14,252,,,,,,,
01/04/2005,1,4,61.76,52.11,47.54,47.92,52.23,46.41,,,,142.88,251,,,,,,,
01/05/2005,1,5,60.55,50.45,46.19,46.80,50.66,45.10,,,,142.38,250,,,,,,,
01/06/2005,1,6,60.09,50.14,45.45,46.72,50.37,45.07,,,,142.07,249,,,,,,,
01/07/2005,1,7,59.53,49.89,44.93,46.54,50.09,44.51,,,,141.47,248,,,,,,,
01/08/2005,1,8,57.55,48.48,43.91,45.15,48.89,43.37,,,,141.15,248,,,,,,,
01/09/2005,1,9,55.89,47.93,42.94,44.33,47.90,43.03,,,,140.70,247,,,,,,,
01/10/2005,1,10,55.79,47.77,42.57,44.53,47.79,43.31,,,,140.22,246,,,,,,,
01/11/2005,1,11,55.37,47.61,42.08,44.02,46.86,42.73,,,,139.88,246,,,,,,,
01/12/2005,1,12,54.77,47.50,41.37,44.05,46.56,42.50,,,,139.37,245,,,,,,,
01/13/2005,1,13,54.96,47.60,41.32,44.32,46.89,42.81,,,,139.12,244,,,,,,,
01/14/2005,1,14,54.76,47.60,40.88,44.22,46.52,42.52,,,,138.70,244,,,,,,,
01/15/2005,1,15,57.57,49.13,41.80,44.91,47.37,43.72,,,,145.93,274,,,,,,,
01/16/2005,1,16,60.36,52.81,43.10,46.42,49.34,45.90,,,,168.02,296,,,,,,,
01/17/2005,1,17,61.05,54.09,43.38,48.28,50.56,48.18,,,,184.23,297,,,,,,,
01/18/2005,1,18,64.82,54.25,46.43,50.29,51.70,50.43,,,,199.52,317,,,,,,,
01/19/2005,1,19,64.75,53.73,48.93,51.62,54.09,50.18,,,,177.61,299,,,,,,,
01/20/2005,1,20,64.40,53.54,50.35,51.51,56.20,50.46,,,,167.23,294,,-0.00020,0.00061,0.00055,-0.00057,-0.00046,0.00074
01/21/2005,1,21,64.25,53.44,48.63,51.42,56.52,50.48,,,,160.81,285,,,,,,,
01/22/2005,1,22,64.19,53.29,47.26,51.38,56.54,50.47,,,,156.07,277,,,,,,,
01/23/2005,1,23,64.08,53.20,47.06,51.35,56.54,50.45,,,,152.20,270,,,,,,,
01/24/2005,1,24,63.94,53.14,47.15,51.33,56.57,50.48,,,,149.05,265,,,,,,,
01/25/2005,1,25,63.92,53.15,47.24,51.34,56.61,50.56,,,,146.43,262,,,,,,,
01/26/2005,1,26,63.87,53.15,47.28,51.30,56.66,50.70,,,,144.25,259,,,,,,,
01/27/2005,1,27,63.82,53.16,47.37,51.31,56.65,50.80,,,,144.27,260,,,,,,,
01/28/2005,1,28,63.74,53.14,47.30,51.27,56.61,50.89,,,,145.08,261,,,,,,,
01/29/2005,1,29,63.71,53.14,47.33,51.29,56.63,50.93,,,,145.62,261,,,,,,,
01/30/2005,1,30,63.77,53.15,47.32,51.33,56.63,50.99,,,,148.33,263,,,,,,,
01/31/2005,1,31,63.72,53.02,47.08,51.30,56.52,50.98,,,,154.28,267,,,,,,,
02/01/2005,2,32,63.61,52.89,46.85,51.20,56.37,50.88,,,,153.09,266,,,,,,,
02/02/2005,2,33,63.51,52.85,46.75,51.17,56.34,50.98,,,,150.04,263,,,,,,,
02/03/2005,2,34,63.41,52.78,46.66,51.10,56.30,51.09,,,,146.81,260,,,,,,,
02/04/2005,2,35,63.33,52.84,46.76,51.18,56.35,51.28,,,,144.78,258,,,,,,,
02/05/2005,2,36,63.33,52.96,46.94,51.24,56.44,51.41,,,,146.04,269,,,,,,,
02/06/2005,2,37,63.48,53.04,47.06,51.27,56.49,51.45,,,,146.90,268,,,,,,,
02/07/2005,2,38,63.46,53.10,47.16,51.22,56.20,50.91,,,,146.81,267,,,,,,,
02/08/2005,2,39,63.45,53.13,47.26,50.51,55.10,49.70,,,,146.40,273,,,,,,,
02/09/2005,2,40,63.28,52.95,47.09,50.23,54.58,49.37,,,,146.18,270,,,,,,,
02/10/2005,2,41,63.16,52.76,46.80,50.44,54.87,49.95,,,,148.08,266,,,,,,,
02/11/2005,2,42,63.01,52.64,46.60,50.98,55.93,51.32,,,,157.12,264,,,,,,,
02/12/2005,2,43,62.95,52.68,46.68,51.02,56.00,51.45,,,,161.68,263,,,,,,,
02/13/2005,2,44,62.96,52.81,46.87,51.12,56.14,51.59,,,,161.40,263,,,,,,,
02/14/2005,2,45,62.36,52.90,47.02,49.73,54.81,49.90,,,,158.78,263,,,,,,,
02/15/2005,2,46,61.36,52.91,47.16,48.09,52.57,47.55,,,,156.32,262,,,,,,,
02/16/2005,2,47,62.27,52.62,46.99,47.51,51.64,46.36,,,,154.20,261,,-0.00147,-0.00216,-0.00016,0.00009,0.00263,0.00087
02/17/2005,2,48,62.74,52.64,46.70,48.00,52.04,46.80,,,,152.08,260,,,,,,,
02/18/2005,2,49,62.60,52.53,46.57,50.22,54.55,50.02,,,,155.23,259,,,,,,,
02/19/2005,2,50,62.62,52.59,46.67,50.92,55.64,51.53,,,,166.22,262,,,,,,,
02/20/2005,2,51,62.68,52.71,46.83,51.04,55.78,51.73,,,,190.95,307,,,,,,,
02/21/2005,2,52,62.55,52.66,46.77,50.99,55.68,51.72,,,,181.40,296,,,,,,,
02/22/2005,2,53,62.41,52.53,46.62,50.84,55.55,51.70,,,,170.79,288,,,,,,,
02/23/2005,2,54,62.29,52.44,46.50,50.75,55.47,51.70,,,,163.60,284,,,,,,,
02/24/2005,2,55,62.19,52.41,46.46,50.70,55.45,51.71,,,,157.77,283,,,,,,,
02/25/2005,2,56,62.16,52.41,46.53,50.74,55.44,51.74,,,,153.46,281,,,,,,,
02/26/2005,2,57,62.10,52.42,46.53,50.78,55.48,51.78,,,,149.74,276,,,,,,,
02/27/2005,2,58,62.09,52.42,46.50,50.79,55.51,51.81,,,,146.55,271,,,,,,,
02/28/2005,2,59,62.05,52.46,46.54,50.88,55.61,51.90,,,,144.38,267,,,,,,,
03/01/2005,3,60,61.93,52.40,46.48,50.83,55.52,51.85,,,,143.07,264,,,,,,,
03/02/2005,3,61,61.99,52.44,46.56,50.89,55.59,51.92,,,,141.63,261,,,,,,,
03/03/2005,3,62,61.89,52.36,46.50,50.85,55.52,51.88,,,,140.45,259,,,,,,,
03/04/2005,3,63,61.92,52.40,46.55,50.90,55.56,51.94,,,,138.88,257,,,,,,,
03/05/2005,3,64,61.82,52.33,46.50,50.86,55.50,51.92,,,,137.57,255,,,,,,,
03/06/2005,3,65,61.79,52.26,46.46,50.83,55.40,51.89,,,,135.32,252,,,,,,,
03/07/2005,3,66,61.74,52.30,46.48,50.86,55.42,51.96,,,,133.00,250,,,,,,,
03/08/2005,3,67,61.70,52.29,46.41,50.84,55.41,51.95,,,,130.90,248,,,,,,,
03/09/2005,3,68,61.68,52.32,46.41,50.82,55.40,51.95,,,,128.60,245,,,,,,,
03/10/2005,3,69,61.65,52.28,46.40,50.75,55.38,51.94,,,,126.55,243,,,,,,,
03/11/2005,3,70,61.59,52.26,46.35,50.70,55.36,51.92,,,,124.17,241,,,,,,,
03/12/2005,3,71,61.52,52.23,46.36,50.61,55.35,51.92,,,,122.39,239,,,,,,,
03/13/2005,3,72,61.40,52.14,46.18,50.43,55.29,51.86,,,,121.01,237,,,,,,,
03/14/2005,3,73,61.29,52.08,46.17,50.40,55.28,51.84,,,,119.75,236,,-0.00027,-0.00087,0.00026,-0.00081,-0.00131,-0.00188
03/15/2005,3,74,61.21,52.01,46.17,50.37,55.24,51.80,,,,118.52,234,,,,,,,
03/16/2005,3,75,61.17,52.01,46.16,50.40,55.28,51.84,,,,117.35,233,,,,,,,
03/17/2005,3,76,61.13,52.15,46.43,50.54,55.43,51.97,,,,116.90,234,,,,,,,
03/18/2005,3,77,61.15,52.33,46.62,50.71,55.59,52.13,,,,117.77,237,,,,,,,
03/19/2005,3,78,61.26,52.41,46.72,50.81,55.64,52.17,,,,119.78,241,,,,,,,
03/20/2005,3,79,60.89,52.07,46.45,50.62,55.41,51.97,,,,128.57,248,,,,,,,
03/21/2005,3,80,60.97,52.21,46.65,50.69,55.54,52.09,,,,134.62,255,,,,,,,
03/22/2005,3,81,60.85,52.20,46.63,50.70,55.50,52.10,,,,147.26,276,,,,,,,
03/23/2005,3,82,60.98,52.30,46.80,50.76,55.57,52.17,,,,160.06,277,,,,,,,
03/24/2005,3,83,61.22,52.57,47.11,50.86,55.77,52.34,,,,158.84,274,,,,,,,
03/25/2005,3,84,61.49,52.78,47.38,50.93,55.82,52.44,,,,155.76,274,,,,,,,
03/26/2005,3,85,61.33,52.73,47.32,50.98,55.74,52.39,,,,174.88,307,,,,,,,
03/27/2005,3,86,61.39,52.89,48.76,51.28,55.96,52.62,,,,211.97,341,,,,,,,
03/28/2005,3,87,61.69,53.05,49.57,51.39,56.03,52.72,,,,188.12,348,,,,,,,
03/29/2005,3,88,61.97,53.27,49.42,51.41,56.16,52.82,,,,173.44,310,,,,,,,
03/30/2005,3,89,62.20,53.39,49.46,51.45,56.20,52.87,,,,167.07,290,,,,,,,
03/31/2005,3,90,62.03,53.23,49.12,51.40,55.89,52.74,,,,166.70,296,,,,,,,
04/01/2005,4,91,61.12,52.43,47.63,51.11,55.21,52.25,,,,184.40,304,,,,,,,
04/02/2005,4,92,61.15,52.41,47.47,51.08,55.16,52.24,,,,182.48,297,,,,,,,
04/03/2005,4,93,61.02,52.27,47.16,51.03,55.05,52.20,,,,174.33,291,,,,,,,
04/04/2005,4,94,61.37,52.52,47.42,51.12,55.26,52.35,,,,172.37,293,,,,,,,
04/05/2005,4,95,61.33,52.56,47.32,51.06,55.14,52.30,,,,173.44,293,,,,,,,
04/06/2005,4,96,60.81,51.92,46.57,50.68,54.69,51.94,,,,189.72,300,,-0.00016,0.00166,-0.00012,0.00041,0.00136,0.00110
04/07/2005,4,97,60.88,51.82,46.39,50.68,54.75,51.95,,,,188.03,300,,,,,,,
04/08/2005,4,98,61.10,52.04,46.52,50.75,54.92,52.09,,,,182.84,306,,,,,,,
04/09/2005,4,99,61.07,52.06,46.49,50.73,54.89,52.10,,,,188.51,312,,,,,,,
04/10/2005,4,100,60.86,51.93,46.29,50.63,54.79,52.03,,,,178.69,297,,,,,,,
04/11/2005,4,101,60.79,51.84,46.13,50.62,54.80,52.01,,,,188.13,310,,,,,,,
04/12/2005,4,102,60.92,51.95,46.27,50.58,54.90,52.07,,,,180.78,298,,,,,,,
04/13/2005,4,103,61.12,52.09,46.53,50.59,54.96,52.09,,,,172.48,288,,,,,,,
04/14/2005,4,104,61.19,52.14,46.67,50.60,55.01,52.04,,,,167.16,288,,,,,,,
04/15/2005,4,105,60.97,51.98,46.33,50.50,54.88,52.08,,,,165.22,291,,,,,,,
04/16/2005,4,106,60.79,51.97,46.88,50.59,54.94,52.13,,,,188.73,305,,,,,,,
04/17/2005,4,107,60.91,52.09,47.34,50.61,55.02,52.21,,,,187.63,301,,,,,,,
04/18/2005,4,108,61.01,52.22,47.00,50.65,55.11,52.27,,,,178.65,293,,,,,,,
04/19/2005,4,109,60.59,51.89,46.25,50.46,54.87,52.02,,,,177.92,292,,,,,,,
04/20/2005,4,110,60.48,51.66,45.72,50.35,54.76,51.86,,,,178.92,285,,,,,,,
04/21/2005,4,111,60.48,51.57,45.40,50.31,54.77,51.80,,,,185.98,279,,,,,,,
04/22/2005,4,112,60.36,51.49,45.45,50.12,54.65,51.71,,,,181.04,276,,,,,,,
04/23/2005,4,113,60.53,51.68,46.25,50.15,54.83,51.85,,,,174.81,276,,,,,,,
04/24/2005,4,114,60.70,51.90,45.88,50.24,54.96,51.96,,,,177.66,285,,,,,,,
04/25/2005,4,115,60.68,51.92,45.62,50.20,54.95,51.93,,,,170.64,280,,,,,,,
04/26/2005,4,116,60.42,51.66,45.13,49.97,54.79,51.78,,,,163.15,274,,,,,,,
04/27/2005,4,117,60.30,51.55,44.90,49.78,54.71,51.72,,,,155.60,267,,,,,,,
04/28/2005,4,118,60.46,51.70,45.01,49.89,54.90,51.80,,,,150.67,261,,,,,,,
04/29/2005,4,119,60.71,51.90,45.17,49.97,55.11,51.95,,,,147.98,258,,,,,,,
04/30/2005,4,120,60.71,51.93,45.11,49.91,55.08,51.90,,,,146.08,255,,,,,,,
05/01/2005,5,121,60.43,51.72,44.79,49.75,54.97,51.76,,,,145.68,254,,,,,,,
05/02/2005,5,122,60.64,51.93,44.96,49.89,55.14,51.90,,,,158.34,267,,,,,,,
05/03/2005,5,123,60.40,51.77,44.73,49.70,54.97,51.74,,,,155.83,264,,,,,,,
05/04/2005,5,124,60.60,51.91,44.86,49.81,55.10,51.81,,,,156.41,261,,,,,,,
05/05/2005,5,125,60.88,52.21,45.14,50.01,55.34,51.97,,,,167.41,263,,,,,,,
05/06/2005,5,126,61.27,52.52,45.48,50.21,55.62,52.20,,,,176.85,278,,,,,,,
05/07/2005,5,127,61.22,52.57,45.47,50.16,55.56,52.12,,,,174.96,284,,,,,,,
05/08/2005,5,128,60.72,52.28,44.82,49.94,55.17,51.72,,,,178.40,288,,,,,,,
05/09/2005,5,129,60.81,52.36,44.92,49.98,55.28,51.82,,,,184.46,294,,,,,,,
05/10/2005,5,130,61.18,52.63,45.33,50.13,55.52,51.99,,,,198.83,313,,,,,,,
05/11/2005,5,131,61.58,52.90,45.58,50.23,55.66,52.09,,,,187.90,301,,0.00114,0.00213,0.00146,0.00054,0.00032,0.00407
05/12/2005,5,132,60.88,52.41,44.77,49.89,55.07,51.62,,,,172.37,290,,,,,,,
05/13/2005,5,133,60.41,51.89,44.04,49.73,54.66,51.40,,,,162.24,278,,,,,,,
05/14/2005,5,134,60.62,52.09,44.22,49.92,54.84,51.51,,,,155.65,270,,,,,,,
05/15/2005,5,135,60.99,52.39,44.73,50.17,55.14,51.75,,,,153.48,264,,,,,,,
05/16/2005,5,136,61.40,52.69,45.23,50.33,55.43,51.97,,,,182.05,294,,,,,,,
05/17/2005,5,137,61.49,52.81,45.51,50.17,55.36,51.89,,,,181.71,293,,,,,,,
05/18/2005,5,138,60.99,52.49,44.87,49.98,54.92,51.52,,,,179.38,285,,,,,,,
05/19/2005,5,139,60.95,52.33,44.55,49.99,54.92,51.51,,,,180.08,283,,,,,,,
05/20/2005,5,140,61.19,52.49,44.77,50.12,55.12,51.66,,,,178.28,280,,,,,,,
05/21/2005,5,141,61.08,52.43,44.72,50.00,54.95,51.51,,,,179.34,285,,,,,,,
05/22/2005,5,142,60.79,52.09,44.36,49.82,54.68,51.30,,,,171.92,280,,,,,,,
05/23/2005,5,143,60.64,51.92,44.12,49.67,54.56,51.19,,,,165.41,273,,,,,,,
05/24/2005,5,144,60.56,51.84,43.89,49.64,54.51,51.20,,,,158.09,266,,,,,,,
05/25/2005,5,145,60.59,51.79,43.46,49.47,54.54,51.18,,,,151.71,259,,,,,,,
05/26/2005,5,146,60.70,51.77,43.20,49.42,54.59,51.16,,,,146.10,252,,,,,,,
05/27/2005,5,147,60.86,51.80,43.16,49.39,54.62,51.18,,,,141.35,246,,,,,,,
05/28/2005,5,148,61.01,51.87,43.25,49.50,54.84,51.27,,,,138.01,243,,,,,,,
05/29/2005,5,149,61.32,52.18,43.68,49.74,55.18,51.49,,,,136.67,242,,,,,,,
05/30/2005,5,150,61.49,52.44,43.94,49.89,55.35,51.58,,,,136.36,241,,,,,,,
05/31/2005,5,151,61.34,52.32,43.82,49.91,55.27,51.38,,,,135.56,240,,,,,,,
06/01/2005,6,152,61.71,52.61,44.29,50.18,55.57,51.71,,,,141.68,255,,,,,,,
06/02/2005,6,153,61.88,52.78,44.59,50.22,55.60,51.80,,,,152.63,269,,,,,,,
06/03/2005,6,154,61.24,52.25,43.98,49.98,55.18,51.38,,,,155.06,266,,,,,,,
06/04/2005,6,155,60.95,51.79,43.50,49.82,54.96,51.19,,,,150.78,260,,,,,,,
06/05/2005,6,156,61.35,51.99,43.85,50.05,55.21,51.34,,,,154.65,261,,,,,,,
06/06/2005,6,157,61.78,52.34,44.36,50.23,55.39,51.51,,,,173.03,273,,0.00153,0.00215,0.00026,0.00497,0.01058,0.01118
06/07/2005,6,158,62.14,52.51,44.68,50.33,55.47,51.61,,,,192.27,297,,,,,,,
06/08/2005,6,159,61.57,52.11,44.17,50.07,55.11,51.38,,,,179.00,285,,,,,,,
06/09/2005,6,160,60.90,51.58,43.45,49.83,54.85,51.17,,,,166.07,271,,,,,,,
06/10/2005,6,161,61.00,51.61,43.41,49.94,54.98,51.20,,,,158.36,263,,,,,,,
06/11/2005,6,162,61.45,51.96,43.80,50.25,55.25,51.40,,,,156.03,261,,,,,,,
06/12/2005,6,163,61.43,52.02,43.81,50.20,55.17,51.35,,,,160.41,265,,,,,,,
06/13/2005,6,164,61.18,51.86,43.54,50.10,55.09,51.28,,,,157.99,263,,,,,,,
06/14/2005,6,165,61.21,51.88,43.62,50.15,55.11,51.29,,,,154.74,259,,,,,,,
06/15/2005,6,166,60.99,51.69,43.45,50.03,54.94,51.16,,,,151.12,255,,,,,,,
06/16/2005,6,167,61.13,51.77,43.46,50.13,55.04,51.19,,,,148.43,252,,,,,,,
06/17/2005,6,168,61.35,51.96,43.68,50.29,55.15,51.28,,,,160.46,260,,,,,,,
06/18/2005,6,169,61.15,51.85,43.48,50.26,55.11,51.21,,,,165.10,261,,,,,,,
06/19/2005,6,170,61.01,51.70,43.28,50.27,55.08,51.15,,,,162.26,259,,,,,,,
06/20/2005,6,171,60.99,51.68,43.11,50.18,54.99,51.03,,,,162.29,262,,,,,,,
06/21/2005,6,172,61.08,51.74,43.11,50.28,55.08,51.02,,,,155.61,257,,,,,,,
06/22/2005,6,173,61.34,51.96,43.26,50.51,55.27,51.12,,,,151.21,254,,,,,,,
06/23/2005,6,174,61.04,51.80,42.96,50.41,55.12,51.01,,,,147.38,250,,,,,,,
06/24/2005,6,175,61.04,51.75,42.76,50.41,55.09,50.93,,,,143.18,246,,,,,,,
06/25/2005,6,176,61.12,51.80,42.60,50.51,55.14,50.91,,,,139.73,242,,,,,,,
06/26/2005,6,177,61.14,51.80,42.49,50.61,55.18,50.91,,,,136.93,239,,,,,,,
06/27/2005,6,178,61.65,52.15,42.81,50.96,55.49,51.12,,,,137.28,239,,,,,,,
06/28/2005,6,179,62.11,52.56,43.12,51.18,55.71,51.28,,,,150.23,254,,,,,,,
06/29/2005,6,180,61.54,52.20,42.65,51.08,55.56,51.10,,,,151.44,257,,,,,,,
06/30/2005,6,181,61.43,52.05,42.40,,,,,,,146.88,,,,,,,,
07/01/2005,7,182,61.64,52.19,42.43,,,,,,,142.25,,,,,,,,
07/02/2005,7,183,61.70,52.19,42.35,,,,,,,139.04,,,,,,,,
07/03/2005,7,184,61.68,52.11,42.22,,,,,,,136.19,,,,,,,,
07/04/2005,7,185,61.69,52.07,42.12,,,,,,,133.17,,,,,,,,
07/05/2005,7,186,61.71,52.15,42.11,,,,,,,130.18,,,,,,,,
07/06/2005,7,187,62.26,52.62,42.50,,,,,,,128.27,,,,,,,,
07/07/2005,7,188,62.36,52.90,42.69,,,,,,,128.08,,,,,,,,
07/08/2005,7,189,62.07,52.74,42.68,,,,,,,126.45,,,0.00316,0.00697,0.00248,0.01115,0.01157,0.01076
07/09/2005,7,190,62.42,53.05,43.00,,,,,,,127.91,,,,,,,,
07/10/2005,7,191,62.68,53.27,43.13,,,,,,,129.36,,,,,,,,
07/11/2005,7,192,62.45,53.29,42.94,,,,,,,130.12,,,,,,,,
07/12/2005,7,193,62.45,53.27,42.89,,,,,,,128.55,,,,,,,,
07/13/2005,7,194,62.37,53.23,42.78,,,,,,,126.95,,,,,,,,
07/14/2005,7,195,62.34,53.21,42.66,,,,,,,125.03,,,,,,,,
07/15/2005,7,196,62.42,53.25,42.73,,,,,,,122.05,,,,,,,,
07/16/2005,7,197,62.55,53.29,42.76,,,,,,,119.93,,,,,,,,
07/17/2005,7,198,62.51,53.30,42.56,,,,,,,117.53,,,,,,,,
07/18/2005,7,199,62.57,53.34,42.58,,,,,,,114.85,,,,,,,,
07/19/2005,7,200,62.63,53.35,42.60,,,,,,,112.40,,,,,,,,
07/20/2005,7,201,62.66,53.31,42.58,,,,,,,110.22,,,,,,,,
07/21/2005,7,202,62.77,53.35,42.59,,,,,,,107.79,,,,,,,,
07/22/2005,7,203,62.99,53.50,42.85,,,,,,,105.81,,,,,,,,
07/23/2005,7,204,62.88,53.43,42.80,,,,,,,104.27,,,,,,,,
07/24/2005,7,205,62.86,53.36,43.05,,,,,,,102.54,,,,,,,,
07/25/2005,7,206,62.87,53.38,43.31,,,,,,,100.62,,,,,,,,
07/26/2005,7,207,62.83,53.42,43.21,,,,,,,98.27,,,,,,,,
07/27/2005,7,208,62.85,53.45,43.31,,,,,,,96.03,,,,,,,,
07/28/2005,7,209,62.89,53.53,43.65,,,,,,,94.00,,,,,,,,
07/29/2005,7,210,62.89,53.55,43.89,,,,,,,92.28,,,,,,,,
07/30/2005,7,211,62.95,53.62,44.15,,,,,,,90.52,,,,,,,,
07/31/2005,7,212,63.00,53.72,44.45,,,,,,,88.80,,,,,,,,
08/01/2005,8,213,63.15,53.84,44.80,,,,,,,87.38,,,,,,,,
08/02/2005,8,214,63.15,53.89,44.98,,,,,,,86.49,,,,,,,,
08/03/2005,8,215,63.05,53.85,44.88,,,,,,,84.98,,,,,,,,
08/04/2005,8,216,63.06,53.91,44.82,,,,,,,83.10,,,,,,,,
08/05/2005,8,217,63.08,53.98,44.89,,,,,,,81.32,,,,,,,,
08/06/2005,8,218,63.05,54.06,44.95,,,,,,,79.81,,,,,,,,
08/07/2005,8,219,63.01,54.23,45.02,,,,,,,78.37,,,,,,,,
08/08/2005,8,220,63.00,54.39,45.05,,,,,,,76.95,,,,,,,,
08/09/2005,8,221,62.96,54.55,45.09,,,,,,,75.47,,,,,,,,
08/10/2005,8,222,62.90,54.68,45.11,,,,,,,74.36,,,0.00140,0.00503,0.00104,0.00829,0.00743,0.01568
08/11/2005,8,223,62.83,54.73,45.08,,,,,,,73.31,,,,,,,,
08/12/2005,8,224,62.83,54.85,45.14,,,,,,,72.38,,,,,,,,
08/13/2005,8,225,62.79,54.93,45.09,,,,,,,71.30,,,,,,,,
08/14/2005,8,226,62.73,54.94,44.93,,,,,,,69.90,,,,,,,,
08/15/2005,8,227,62.72,54.99,44.94,,,,,,,68.82,,,,,,,,
08/16/2005,8,228,62.74,55.08,45.05,,,,,,,67.90,,,,,,,,
08/17/2005,8,229,62.84,55.18,45.18,53.94,54.90,54.03,,,,67.42,135,,,,,,,
08/18/2005,8,230,62.73,55.21,45.20,53.93,54.85,54.08,,,,66.78,134,,,,,,,
08/19/2005,8,231,62.67,55.25,45.22,53.90,54.80,54.11,,,,65.87,133,,,,,,,
08/20/2005,8,232,62.64,55.28,45.21,53.90,54.76,54.14,,,,64.81,130,,,,,,,
08/21/2005,8,233,62.68,55.36,45.33,53.94,54.78,54.25,,,,64.03,128,,,,,,,
08/22/2005,8,234,62.70,55.39,45.41,53.98,54.78,54.34,,,,63.43,126,,,,,,,
08/23/2005,8,235,62.69,55.40,45.39,53.97,54.77,54.38,,,,63.06,125,,,,,,,
08/24/2005,8,236,62.57,55.37,45.26,53.89,54.68,54.34,,,,62.56,124,,,,,,,
08/25/2005,8,237,62.53,55.39,45.12,53.91,54.63,54.38,,,,61.65,121,,,,,,,
08/26/2005,8,238,62.52,55.41,45.09,53.91,54.62,54.40,,,,60.79,119,,,,,,,
08/27/2005,8,239,62.49,55.43,45.11,53.90,54.60,54.45,,,,60.23,117,,,,,,,
08/28/2005,8,240,62.49,55.45,45.12,53.92,54.60,54.50,,,,59.77,116,,,,,,,
08/29/2005,8,241,62.86,55.68,45.45,54.10,54.83,54.74,,,,60.88,115,,,,,,,
08/30/2005,8,242,62.85,55.75,45.58,54.21,54.74,54.79,,,,62.70,116,,,,,,,
08/31/2005,8,243,62.47,55.63,45.42,54.02,54.56,54.69,,,,61.86,115,,,,,,,
09/01/2005,9,244,62.37,55.62,45.40,53.90,54.51,54.65,,,,60.90,114,,,,,,,
09/02/2005,9,245,62.38,55.67,45.43,53.92,54.54,54.69,,,,60.05,114,,,,,,,
09/03/2005,9,246,62.46,55.72,45.56,53.97,54.57,54.76,,,,59.72,113,,,,,,,
09/04/2005,9,247,62.32,55.64,45.46,53.88,54.46,54.70,,,,59.59,113,,,,,,,
09/05/2005,9,248,62.19,55.58,45.37,53.83,54.38,54.64,,,,59.15,112,,,,,,,
09/06/2005,9,249,62.12,55.56,45.35,53.81,54.36,54.62,,,,58.58,111,,,,,,,
09/07/2005,9,250,62.05,55.55,45.35,53.79,54.32,54.61,,,,58.08,110,,-0.00082,0.00265,0.00070,0.00308,0.00060,0.00530
09/08/2005,9,251,62.02,55.55,45.38,53.76,54.28,54.58,,,,57.40,109,,,,,,,
09/09/2005,9,252,62.29,55.63,45.52,53.84,54.45,54.70,,,,57.63,109,,,,,,,
09/10/2005,9,253,62.74,55.82,45.75,54.06,54.60,54.88,,,,61.17,174,,,,,,,
09/11/2005,9,254,62.76,55.79,45.71,54.06,54.50,54.81,,,,62.15,196,,,,,,,
09/12/2005,9,255,62.34,55.62,45.47,53.84,54.30,54.67,,,,61.93,186,,,,,,,
09/13/2005,9,256,62.22,55.56,45.44,53.72,54.25,54.65,,,,61.51,179,,,,,,,
09/14/2005,9,257,62.16,55.56,45.47,53.65,54.26,54.62,,,,61.12,174,,,,,,,
09/15/2005,9,258,62.16,55.57,45.51,53.67,54.29,54.63,,,,60.83,170,,,,,,,
09/16/2005,9,259,62.23,55.58,45.55,53.66,54.31,54.62,,,,60.92,167,,,,,,,
09/17/2005,9,260,62.27,55.58,45.57,53.62,54.29,54.58,,,,61.08,164,,,,,,,
09/18/2005,9,261,61.99,55.38,45.35,53.46,54.10,54.40,,,,60.92,161,,,,,,,
09/19/2005,9,262,61.91,55.32,45.28,53.44,54.06,54.34,,,,60.33,158,,,,,,,
09/20/2005,9,263,61.88,55.29,45.25,53.39,54.06,54.31,,,,60.02,155,,,,,,,
09/21/2005,9,264,61.81,55.19,45.15,53.30,53.98,54.20,,,,59.69,153,,,,,,,
09/22/2005,9,265,61.79,55.13,45.11,53.25,53.99,54.15,,,,59.27,150,,,,,,,